Year,Month,Day,Hour,Minute,Value (Times are PST for temperature in C)
2009,08,20,00,00,19.10
2009,08,20,00,01,19.10
2009,08,20,00,02,19.00
2009,08,20,00,03,18.90
2009,08,20,00,04,18.90
2009,08,20,00,05,18.90
2009,08,20,00,06,18.90
2009,08,20,00,07,18.90
2009,08,20,00,08,18.90
2009,08,20,00,09,18.90
2009,08,20,00,10,18.90
2009,08,20,00,11,18.90
2009,08,20,00,12,18.90
2009,08,20,00,13,18.90
2009,08,20,00,14,18.90
2009,08,20,00,15,18.90
2009,08,20,00,16,18.90
2009,08,20,00,17,18.90
2009,08,20,00,18,18.90
2009,08,20,00,19,18.90
2009,08,20,00,20,18.90
2009,08,20,00,21,18.90
2009,08,20,00,22,18.90
2009,08,20,00,23,18.90
2009,08,20,00,24,18.90
2009,08,20,00,25,18.80
2009,08,20,00,26,18.80
2009,08,20,00,27,18.80
2009,08,20,00,28,18.80
2009,08,20,00,29,18.80
2009,08,20,00,30,18.80
2009,08,20,00,31,18.70
2009,08,20,00,32,18.70
2009,08,20,00,33,18.70
2009,08,20,00,34,18.70
2009,08,20,00,35,18.70
2009,08,20,00,36,18.60
2009,08,20,00,37,18.60
2009,08,20,00,38,18.60
2009,08,20,00,39,18.60
2009,08,20,00,40,18.60
2009,08,20,00,41,18.60
2009,08,20,00,42,18.60
2009,08,20,00,43,18.60
2009,08,20,00,44,18.60
2009,08,20,00,45,18.60
2009,08,20,00,46,18.50
2009,08,20,00,47,18.50
2009,08,20,00,48,18.50
2009,08,20,00,49,18.50
2009,08,20,00,50,18.50
2009,08,20,00,51,18.50
2009,08,20,00,52,18.50
2009,08,20,00,53,18.40
2009,08,20,00,54,18.40
2009,08,20,00,55,18.40
2009,08,20,00,56,18.40
2009,08,20,00,57,18.40
2009,08,20,00,58,18.40
2009,08,20,00,59,18.40
2009,08,20,01,00,18.30
2009,08,20,01,01,18.30
2009,08,20,01,02,18.30
2009,08,20,01,03,18.30
2009,08,20,01,04,18.30
2009,08,20,01,05,18.20
2009,08,20,01,06,18.20
2009,08,20,01,07,18.20
2009,08,20,01,08,18.20
2009,08,20,01,09,18.20
2009,08,20,01,10,18.20
2009,08,20,01,11,18.20
2009,08,20,01,12,18.20
2009,08,20,01,13,18.20
2009,08,20,01,14,18.20
2009,08,20,01,15,18.20
2009,08,20,01,16,18.20
2009,08,20,01,17,18.20
2009,08,20,01,18,18.20
2009,08,20,01,19,18.20
2009,08,20,01,20,18.20
2009,08,20,01,21,18.20
2009,08,20,01,22,18.20
2009,08,20,01,23,18.20
2009,08,20,01,24,18.10
2009,08,20,01,25,18.10
2009,08,20,01,26,18.10
2009,08,20,01,27,18.10
2009,08,20,01,28,18.10
2009,08,20,01,29,18.10
2009,08,20,01,30,18.10
2009,08,20,01,31,18.10
2009,08,20,01,32,18.10
2009,08,20,01,33,18.10
2009,08,20,01,34,18.00
2009,08,20,01,35,17.90
2009,08,20,01,36,17.90
2009,08,20,01,37,17.90
2009,08,20,01,38,17.90
2009,08,20,01,39,17.90
2009,08,20,01,40,17.90
2009,08,20,01,41,17.90
2009,08,20,01,42,17.90
2009,08,20,01,43,17.90
2009,08,20,01,44,17.90
2009,08,20,01,45,17.90
2009,08,20,01,46,17.90
2009,08,20,01,47,17.90
2009,08,20,01,48,17.90
2009,08,20,01,49,17.90
2009,08,20,01,50,17.90
2009,08,20,01,51,17.90
2009,08,20,01,52,17.90
2009,08,20,01,53,17.90
2009,08,20,01,54,17.90
2009,08,20,01,55,17.90
2009,08,20,01,56,17.90
2009,08,20,01,57,17.90
2009,08,20,01,58,17.90
2009,08,20,01,59,17.90
2009,08,20,02,00,17.90
2009,08,20,02,01,17.90
2009,08,20,02,02,17.90
2009,08,20,02,03,17.90
2009,08,20,02,04,18.00
2009,08,20,02,05,18.10
2009,08,20,02,06,18.10
2009,08,20,02,07,18.10
2009,08,20,02,08,18.10
2009,08,20,02,09,18.10
2009,08,20,02,10,18.10
2009,08,20,02,11,18.10
2009,08,20,02,12,17.90
2009,08,20,02,13,17.90
2009,08,20,02,14,17.90
2009,08,20,02,15,17.90
2009,08,20,02,16,17.90
2009,08,20,02,17,17.90
2009,08,20,02,18,17.90
2009,08,20,02,19,17.90
2009,08,20,02,20,17.90
2009,08,20,02,21,17.90
2009,08,20,02,22,17.90
2009,08,20,02,23,17.90
2009,08,20,02,24,17.90
2009,08,20,02,25,17.90
2009,08,20,02,26,18.00
2009,08,20,02,27,18.10
2009,08,20,02,28,18.10
2009,08,20,02,29,18.10
2009,08,20,02,30,18.10
2009,08,20,02,31,18.10
2009,08,20,02,32,18.10
2009,08,20,02,33,18.10
2009,08,20,02,34,18.10
2009,08,20,02,35,18.10
2009,08,20,02,36,18.10
2009,08,20,02,37,18.10
2009,08,20,02,38,18.10
2009,08,20,02,39,18.00
2009,08,20,02,40,17.90
2009,08,20,02,41,17.90
2009,08,20,02,42,17.90
2009,08,20,02,43,17.90
2009,08,20,02,44,17.90
2009,08,20,02,45,17.90
2009,08,20,02,46,17.90
2009,08,20,02,47,17.90
2009,08,20,02,48,17.90
2009,08,20,02,49,17.90
2009,08,20,02,50,17.90
2009,08,20,02,51,17.90
2009,08,20,02,52,17.80
2009,08,20,02,53,17.80
2009,08,20,02,54,17.70
2009,08,20,02,55,17.70
2009,08,20,02,56,17.70
2009,08,20,02,57,17.70
2009,08,20,02,58,17.70
2009,08,20,02,59,17.60
2009,08,20,03,00,17.60
2009,08,20,03,01,17.60
2009,08,20,03,02,17.60
2009,08,20,03,03,17.50
2009,08,20,03,04,17.50
2009,08,20,03,05,17.50
2009,08,20,03,06,17.40
2009,08,20,03,07,17.40
2009,08,20,03,08,17.40
2009,08,20,03,09,17.30
2009,08,20,03,10,17.30
2009,08,20,03,11,17.30
2009,08,20,03,12,17.30
2009,08,20,03,13,17.20
2009,08,20,03,14,17.20
2009,08,20,03,15,17.20
2009,08,20,03,16,17.10
2009,08,20,03,17,17.10
2009,08,20,03,18,17.00
2009,08,20,03,19,17.00
2009,08,20,03,20,17.00
2009,08,20,03,21,16.90
2009,08,20,03,22,16.90
2009,08,20,03,23,16.80
2009,08,20,03,24,16.80
2009,08,20,03,25,16.80
2009,08,20,03,26,16.80
2009,08,20,03,27,16.70
2009,08,20,03,28,16.70
2009,08,20,03,29,16.70
2009,08,20,03,30,16.70
2009,08,20,03,31,16.70
2009,08,20,03,32,16.70
2009,08,20,03,33,16.60
2009,08,20,03,34,16.60
2009,08,20,03,35,16.50
2009,08,20,03,36,16.40
2009,08,20,03,37,16.40
2009,08,20,03,38,16.40
2009,08,20,03,39,16.40
2009,08,20,03,40,16.30
2009,08,20,03,41,16.30
2009,08,20,03,42,16.30
2009,08,20,03,43,16.30
2009,08,20,03,44,16.20
2009,08,20,03,45,16.20
2009,08,20,03,46,16.20
2009,08,20,03,47,16.10
2009,08,20,03,48,16.10
2009,08,20,03,49,16.10
2009,08,20,03,50,16.10
2009,08,20,03,51,16.10
2009,08,20,03,52,16.10
2009,08,20,03,53,16.10
2009,08,20,03,54,16.10
2009,08,20,03,55,16.10
2009,08,20,03,56,16.10
2009,08,20,03,57,16.10
2009,08,20,03,58,16.10
2009,08,20,03,59,16.10
2009,08,20,04,00,16.10
2009,08,20,04,01,16.10
2009,08,20,04,02,16.10
2009,08,20,04,03,16.10
2009,08,20,04,04,16.10
2009,08,20,04,05,16.10
2009,08,20,04,06,16.10
2009,08,20,04,07,16.10
2009,08,20,04,08,16.10
2009,08,20,04,09,16.10
2009,08,20,04,10,16.10
2009,08,20,04,11,16.10
2009,08,20,04,12,16.10
2009,08,20,04,13,16.20
2009,08,20,04,14,16.20
2009,08,20,04,15,16.20
2009,08,20,04,16,16.20
2009,08,20,04,17,16.20
2009,08,20,04,18,16.20
2009,08,20,04,19,16.20
2009,08,20,04,20,16.10
2009,08,20,04,21,16.10
2009,08,20,04,22,16.10
2009,08,20,04,23,16.10
2009,08,20,04,24,16.10
2009,08,20,04,25,16.10
2009,08,20,04,26,16.10
2009,08,20,04,27,16.10
2009,08,20,04,28,16.10
2009,08,20,04,29,16.10
2009,08,20,04,30,16.10
2009,08,20,04,31,16.10
2009,08,20,04,32,16.10
2009,08,20,04,33,16.10
2009,08,20,04,34,16.10
2009,08,20,04,35,16.10
2009,08,20,04,36,16.10
2009,08,20,04,37,16.10
2009,08,20,04,38,16.10
2009,08,20,04,39,16.10
2009,08,20,04,40,16.10
2009,08,20,04,41,16.10
2009,08,20,04,42,16.10
2009,08,20,04,43,16.10
2009,08,20,04,44,16.10
2009,08,20,04,45,16.10
2009,08,20,04,46,16.10
2009,08,20,04,47,16.10
2009,08,20,04,48,16.10
2009,08,20,04,49,16.10
2009,08,20,04,50,16.10
2009,08,20,04,51,16.10
2009,08,20,04,52,16.10
2009,08,20,04,53,16.10
2009,08,20,04,54,16.10
2009,08,20,04,55,16.00
2009,08,20,04,56,15.90
2009,08,20,04,57,15.90
2009,08,20,04,58,15.90
2009,08,20,04,59,16.00
2009,08,20,05,00,16.10
2009,08,20,05,01,16.10
2009,08,20,05,02,16.10
2009,08,20,05,03,16.10
2009,08,20,05,04,16.10
2009,08,20,05,05,16.00
2009,08,20,05,06,15.90
2009,08,20,05,07,15.90
2009,08,20,05,08,15.90
2009,08,20,05,09,15.90
2009,08,20,05,10,15.90
2009,08,20,05,11,15.90
2009,08,20,05,12,15.90
2009,08,20,05,13,15.90
2009,08,20,05,14,15.90
2009,08,20,05,15,15.90
2009,08,20,05,16,15.90
2009,08,20,05,17,15.90
2009,08,20,05,18,15.90
2009,08,20,05,19,15.90
2009,08,20,05,20,15.90
2009,08,20,05,21,15.90
2009,08,20,05,22,15.90
2009,08,20,05,23,15.90
2009,08,20,05,24,15.90
2009,08,20,05,25,15.90
2009,08,20,05,26,15.90
2009,08,20,05,27,15.90
2009,08,20,05,28,15.90
2009,08,20,05,29,15.90
2009,08,20,05,30,15.90
2009,08,20,05,31,15.90
2009,08,20,05,32,15.90
2009,08,20,05,33,15.90
2009,08,20,05,34,15.90
2009,08,20,05,35,15.90
2009,08,20,05,36,15.90
2009,08,20,05,37,15.90
2009,08,20,05,38,15.90
2009,08,20,05,39,15.90
2009,08,20,05,40,15.90
2009,08,20,05,41,15.90
2009,08,20,05,42,15.80
2009,08,20,05,43,15.80
2009,08,20,05,44,15.80
2009,08,20,05,45,15.80
2009,08,20,05,46,15.80
2009,08,20,05,47,15.80
2009,08,20,05,48,15.80
2009,08,20,05,49,15.80
2009,08,20,05,50,15.80
2009,08,20,05,51,15.80
2009,08,20,05,52,15.80
2009,08,20,05,53,15.80
2009,08,20,05,54,15.70
2009,08,20,05,55,15.70
2009,08,20,05,56,15.70
2009,08,20,05,57,15.70
2009,08,20,05,58,15.70
2009,08,20,05,59,15.70
2009,08,20,06,00,15.70
2009,08,20,06,01,15.70
2009,08,20,06,02,15.70
2009,08,20,06,03,15.70
2009,08,20,06,04,15.70
2009,08,20,06,05,15.70
2009,08,20,06,06,15.60
2009,08,20,06,07,15.60
2009,08,20,06,08,15.60
2009,08,20,06,09,15.60
2009,08,20,06,10,15.60
2009,08,20,06,11,15.60
2009,08,20,06,12,15.50
2009,08,20,06,13,15.50
2009,08,20,06,14,15.50
2009,08,20,06,15,15.50
2009,08,20,06,16,15.50
2009,08,20,06,17,15.50
2009,08,20,06,18,15.50
2009,08,20,06,19,15.50
2009,08,20,06,20,15.50
2009,08,20,06,21,15.50
2009,08,20,06,22,15.50
2009,08,20,06,23,15.50
2009,08,20,06,24,15.50
2009,08,20,06,25,15.50
2009,08,20,06,26,15.60
2009,08,20,06,27,15.60
2009,08,20,06,28,15.60
2009,08,20,06,29,15.60
2009,08,20,06,30,15.70
2009,08,20,06,31,15.70
2009,08,20,06,32,15.70
2009,08,20,06,33,15.70
2009,08,20,06,34,15.70
2009,08,20,06,35,15.70
2009,08,20,06,36,15.70
2009,08,20,06,37,15.60
2009,08,20,06,38,15.60
2009,08,20,06,39,15.60
2009,08,20,06,40,15.60
2009,08,20,06,41,15.60
2009,08,20,06,42,15.60
2009,08,20,06,43,15.60
2009,08,20,06,44,15.60
2009,08,20,06,45,15.60
2009,08,20,06,46,15.60
2009,08,20,06,47,15.60
2009,08,20,06,48,15.60
2009,08,20,06,49,15.60
2009,08,20,06,50,15.60
2009,08,20,06,51,15.60
2009,08,20,06,52,15.60
2009,08,20,06,53,15.60
2009,08,20,06,54,15.60
2009,08,20,06,55,15.60
2009,08,20,06,56,15.60
2009,08,20,06,57,15.70
2009,08,20,06,58,15.70
2009,08,20,06,59,15.70
2009,08,20,07,00,15.80
2009,08,20,07,01,15.80
2009,08,20,07,02,15.80
2009,08,20,07,03,15.80
2009,08,20,07,04,15.90
2009,08,20,07,05,15.90
2009,08,20,07,06,15.90
2009,08,20,07,07,15.90
2009,08,20,07,08,16.00
2009,08,20,07,09,16.10
2009,08,20,07,10,16.10
2009,08,20,07,11,16.20
2009,08,20,07,12,16.20
2009,08,20,07,13,16.30
2009,08,20,07,14,16.30
2009,08,20,07,15,16.40
2009,08,20,07,16,16.40
2009,08,20,07,17,16.40
2009,08,20,07,18,16.50
2009,08,20,07,19,16.60
2009,08,20,07,20,16.60
2009,08,20,07,21,16.70
2009,08,20,07,22,16.70
2009,08,20,07,23,16.80
2009,08,20,07,24,16.80
2009,08,20,07,25,16.90
2009,08,20,07,26,16.90
2009,08,20,07,27,17.00
2009,08,20,07,28,17.10
2009,08,20,07,29,17.20
2009,08,20,07,30,17.20
2009,08,20,07,31,17.30
2009,08,20,07,32,17.40
2009,08,20,07,33,17.40
2009,08,20,07,34,17.50
2009,08,20,07,35,17.60
2009,08,20,07,36,17.60
2009,08,20,07,37,17.70
2009,08,20,07,38,17.80
2009,08,20,07,39,17.80
2009,08,20,07,40,17.90
2009,08,20,07,41,17.90
2009,08,20,07,42,17.90
2009,08,20,07,43,17.90
2009,08,20,07,44,18.00
2009,08,20,07,45,18.10
2009,08,20,07,46,18.10
2009,08,20,07,47,18.20
2009,08,20,07,48,18.20
2009,08,20,07,49,18.20
2009,08,20,07,50,18.30
2009,08,20,07,51,18.40
2009,08,20,07,52,18.50
2009,08,20,07,53,18.60
2009,08,20,07,54,18.60
2009,08,20,07,55,18.70
2009,08,20,07,56,18.80
2009,08,20,07,57,18.90
2009,08,20,07,58,18.90
2009,08,20,07,59,19.00
2009,08,20,08,00,19.20
2009,08,20,08,01,19.30
2009,08,20,08,02,19.40
2009,08,20,08,03,19.50
2009,08,20,08,04,19.60
2009,08,20,08,05,19.60
2009,08,20,08,06,19.70
2009,08,20,08,07,19.80
2009,08,20,08,08,19.80
2009,08,20,08,09,19.90
2009,08,20,08,10,19.90
2009,08,20,08,11,20.00
2009,08,20,08,12,20.00
2009,08,20,08,13,20.00
2009,08,20,08,14,19.90
2009,08,20,08,15,19.90
2009,08,20,08,16,19.90
2009,08,20,08,17,19.90
2009,08,20,08,18,19.90
2009,08,20,08,19,19.80
2009,08,20,08,20,19.80
2009,08,20,08,21,19.80
2009,08,20,08,22,19.70
2009,08,20,08,23,19.70
2009,08,20,08,24,19.70
2009,08,20,08,25,19.70
2009,08,20,08,26,19.70
2009,08,20,08,27,19.80
2009,08,20,08,28,19.80
2009,08,20,08,29,19.80
2009,08,20,08,30,19.90
2009,08,20,08,31,19.90
2009,08,20,08,32,19.90
2009,08,20,08,33,19.90
2009,08,20,08,34,19.90
2009,08,20,08,35,19.90
2009,08,20,08,36,20.00
2009,08,20,08,37,20.10
2009,08,20,08,38,20.10
2009,08,20,08,39,20.20
2009,08,20,08,40,20.20
2009,08,20,08,41,20.30
2009,08,20,08,42,20.50
2009,08,20,08,43,20.50
2009,08,20,08,44,20.70
2009,08,20,08,45,20.80
2009,08,20,08,46,20.90
2009,08,20,08,47,21.00
2009,08,20,08,48,21.00
2009,08,20,08,49,21.10
2009,08,20,08,50,21.20
2009,08,20,08,51,21.30
2009,08,20,08,52,21.30
2009,08,20,08,53,21.30
2009,08,20,08,54,21.30
2009,08,20,08,55,21.30
2009,08,20,08,56,21.30
2009,08,20,08,57,21.30
2009,08,20,08,58,21.30
2009,08,20,08,59,21.30
2009,08,20,09,00,21.20
2009,08,20,09,01,21.20
2009,08,20,09,02,21.10
2009,08,20,09,03,21.10
2009,08,20,09,04,21.10
2009,08,20,09,05,21.10
2009,08,20,09,06,21.20
2009,08,20,09,07,21.20
2009,08,20,09,08,21.30
2009,08,20,09,09,21.30
2009,08,20,09,10,21.40
2009,08,20,09,11,21.40
2009,08,20,09,12,21.50
2009,08,20,09,13,21.60
2009,08,20,09,14,21.60
2009,08,20,09,15,21.60
2009,08,20,09,16,21.60
2009,08,20,09,17,21.60
2009,08,20,09,18,21.60
2009,08,20,09,19,21.60
2009,08,20,09,20,21.50
2009,08,20,09,21,21.40
2009,08,20,09,22,21.30
2009,08,20,09,23,21.30
2009,08,20,09,24,21.20
2009,08,20,09,25,21.10
2009,08,20,09,26,21.10
2009,08,20,09,27,21.10
2009,08,20,09,28,21.10
2009,08,20,09,29,21.10
2009,08,20,09,30,21.10
2009,08,20,09,31,21.10
2009,08,20,09,32,21.10
2009,08,20,09,33,21.10
2009,08,20,09,34,21.20
2009,08,20,09,35,21.20
2009,08,20,09,36,21.20
2009,08,20,09,37,21.20
2009,08,20,09,38,21.20
2009,08,20,09,39,21.30
2009,08,20,09,40,21.30
2009,08,20,09,41,21.30
2009,08,20,09,42,21.30
2009,08,20,09,43,21.40
2009,08,20,09,44,21.40
2009,08,20,09,45,21.40
2009,08,20,09,46,21.50
2009,08,20,09,47,21.60
2009,08,20,09,48,21.60
2009,08,20,09,49,21.60
2009,08,20,09,50,21.60
2009,08,20,09,51,21.60
2009,08,20,09,52,21.60
2009,08,20,09,53,21.60
2009,08,20,09,54,21.60
2009,08,20,09,55,21.60
2009,08,20,09,56,21.60
2009,08,20,09,57,21.60
2009,08,20,09,58,21.60
2009,08,20,09,59,21.60
2009,08,20,10,00,21.60
2009,08,20,10,01,21.70
2009,08,20,10,02,21.80
2009,08,20,10,03,21.90
2009,08,20,10,04,22.00
2009,08,20,10,05,22.10
2009,08,20,10,06,22.10
2009,08,20,10,07,22.10
2009,08,20,10,08,22.20
2009,08,20,10,09,22.30
2009,08,20,10,10,22.40
2009,08,20,10,11,22.60
2009,08,20,10,12,22.70
2009,08,20,10,13,22.90
2009,08,20,10,14,22.90
2009,08,20,10,15,22.90
2009,08,20,10,16,22.80
2009,08,20,10,17,22.80
2009,08,20,10,18,22.90
2009,08,20,10,19,22.90
2009,08,20,10,20,22.90
2009,08,20,10,21,22.90
2009,08,20,10,22,23.00
2009,08,20,10,23,23.10
2009,08,20,10,24,23.20
2009,08,20,10,25,23.20
2009,08,20,10,26,23.30
2009,08,20,10,27,23.20
2009,08,20,10,28,23.10
2009,08,20,10,29,22.90
2009,08,20,10,30,22.90
2009,08,20,10,31,22.70
2009,08,20,10,32,22.60
2009,08,20,10,33,22.50
2009,08,20,10,34,22.40
2009,08,20,10,35,22.30
2009,08,20,10,36,22.30
2009,08,20,10,37,22.40
2009,08,20,10,38,22.50
2009,08,20,10,39,22.50
2009,08,20,10,40,22.50
2009,08,20,10,41,22.50
2009,08,20,10,42,22.60
2009,08,20,10,43,22.70
2009,08,20,10,44,22.80
2009,08,20,10,45,23.00
2009,08,20,10,46,23.10
2009,08,20,10,47,23.30
2009,08,20,10,48,23.40
2009,08,20,10,49,23.50
2009,08,20,10,50,23.60
2009,08,20,10,51,23.60
2009,08,20,10,52,23.60
2009,08,20,10,53,23.60
2009,08,20,10,54,23.60
2009,08,20,10,55,23.50
2009,08,20,10,56,23.50
2009,08,20,10,57,23.60
2009,08,20,10,58,23.60
2009,08,20,10,59,23.60
2009,08,20,11,00,23.60
2009,08,20,11,01,23.60
2009,08,20,11,02,23.70
2009,08,20,11,03,23.70
2009,08,20,11,04,23.70
2009,08,20,11,05,23.60
2009,08,20,11,06,23.60
2009,08,20,11,07,23.60
2009,08,20,11,08,23.50
2009,08,20,11,09,23.30
2009,08,20,11,10,23.30
2009,08,20,11,11,23.40
2009,08,20,11,12,23.50
2009,08,20,11,13,23.60
2009,08,20,11,14,23.70
2009,08,20,11,15,23.70
2009,08,20,11,16,23.70
2009,08,20,11,17,23.70
2009,08,20,11,18,23.70
2009,08,20,11,19,23.60
2009,08,20,11,20,23.50
2009,08,20,11,21,23.40
2009,08,20,11,22,23.30
2009,08,20,11,23,23.30
2009,08,20,11,24,23.30
2009,08,20,11,25,23.10
2009,08,20,11,26,23.00
2009,08,20,11,27,22.90
2009,08,20,11,28,22.80
2009,08,20,11,29,22.70
2009,08,20,11,30,22.60
2009,08,20,11,31,22.60
2009,08,20,11,32,22.50
2009,08,20,11,33,22.50
2009,08,20,11,34,22.50
2009,08,20,11,35,22.50
2009,08,20,11,36,22.50
2009,08,20,11,37,22.50
2009,08,20,11,38,22.50
2009,08,20,11,39,22.50
2009,08,20,11,40,22.50
2009,08,20,11,41,22.40
2009,08,20,11,42,22.40
2009,08,20,11,43,22.50
2009,08,20,11,44,22.50
2009,08,20,11,45,22.50
2009,08,20,11,46,22.50
2009,08,20,11,47,22.60
2009,08,20,11,48,22.60
2009,08,20,11,49,22.60
2009,08,20,11,50,22.60
2009,08,20,11,51,22.60
2009,08,20,11,52,22.70
2009,08,20,11,53,22.80
2009,08,20,11,54,22.80
2009,08,20,11,55,22.80
2009,08,20,11,56,22.80
2009,08,20,11,57,22.80
2009,08,20,11,58,22.70
2009,08,20,11,59,22.70
2009,08,20,12,00,22.70
2009,08,20,12,01,22.80
2009,08,20,12,02,22.90
2009,08,20,12,03,23.10
2009,08,20,12,04,23.30
2009,08,20,12,05,23.30
2009,08,20,12,06,23.30
2009,08,20,12,07,23.30
2009,08,20,12,08,23.30
2009,08,20,12,09,23.30
2009,08,20,12,10,23.30
2009,08,20,12,11,23.30
2009,08,20,12,12,23.20
2009,08,20,12,13,23.30
2009,08,20,12,14,23.20
2009,08,20,12,15,23.20
2009,08,20,12,16,23.10
2009,08,20,12,17,23.10
2009,08,20,12,18,23.10
2009,08,20,12,19,23.20
2009,08,20,12,20,23.20
2009,08,20,12,21,23.10
2009,08,20,12,22,22.90
2009,08,20,12,23,22.90
2009,08,20,12,24,22.90
2009,08,20,12,25,23.00
2009,08,20,12,26,23.10
2009,08,20,12,27,23.10
2009,08,20,12,28,23.20
2009,08,20,12,29,23.10
2009,08,20,12,30,23.10
2009,08,20,12,31,23.10
2009,08,20,12,32,23.10
2009,08,20,12,33,23.10
2009,08,20,12,34,23.20
2009,08,20,12,35,23.20
2009,08,20,12,36,23.10
2009,08,20,12,37,22.90
2009,08,20,12,38,22.90
2009,08,20,12,39,22.90
2009,08,20,12,40,22.90
2009,08,20,12,41,22.90
2009,08,20,12,42,22.90
2009,08,20,12,43,22.90
2009,08,20,12,44,22.90
2009,08,20,12,45,22.90
2009,08,20,12,46,23.00
2009,08,20,12,47,23.10
2009,08,20,12,48,23.30
2009,08,20,12,49,23.50
2009,08,20,12,50,23.70
2009,08,20,12,51,23.70
2009,08,20,12,52,23.70
2009,08,20,12,53,23.70
2009,08,20,12,54,23.70
2009,08,20,12,55,23.70
2009,08,20,12,56,23.70
2009,08,20,12,57,23.60
2009,08,20,12,58,23.60
2009,08,20,12,59,23.50
2009,08,20,13,00,23.40
2009,08,20,13,01,23.40
2009,08,20,13,02,23.30
2009,08,20,13,03,23.30
2009,08,20,13,04,23.40
2009,08,20,13,05,23.40
2009,08,20,13,06,23.40
2009,08,20,13,07,23.40
2009,08,20,13,08,23.40
2009,08,20,13,09,23.50
2009,08,20,13,10,23.60
2009,08,20,13,11,23.70
2009,08,20,13,12,23.60
2009,08,20,13,13,23.50
2009,08,20,13,14,23.40
2009,08,20,13,15,23.40
2009,08,20,13,16,23.40
2009,08,20,13,17,23.30
2009,08,20,13,18,23.30
2009,08,20,13,19,23.30
2009,08,20,13,20,23.30
2009,08,20,13,21,23.30
2009,08,20,13,22,23.30
2009,08,20,13,23,23.30
2009,08,20,13,24,23.30
2009,08,20,13,25,23.30
2009,08,20,13,26,23.30
2009,08,20,13,27,23.40
2009,08,20,13,28,23.40
2009,08,20,13,29,23.50
2009,08,20,13,30,23.60
2009,08,20,13,31,23.70
2009,08,20,13,32,23.70
2009,08,20,13,33,23.70
2009,08,20,13,34,23.70
2009,08,20,13,35,23.70
2009,08,20,13,36,23.70
2009,08,20,13,37,23.70
2009,08,20,13,38,23.70
2009,08,20,13,39,23.70
2009,08,20,13,40,23.70
2009,08,20,13,41,23.70
2009,08,20,13,42,23.90
2009,08,20,13,43,24.10
2009,08,20,13,44,24.10
2009,08,20,13,45,24.00
2009,08,20,13,46,23.90
2009,08,20,13,47,23.90
2009,08,20,13,48,23.90
2009,08,20,13,49,24.10
2009,08,20,13,50,24.10
2009,08,20,13,51,24.20
2009,08,20,13,52,24.30
2009,08,20,13,53,24.30
2009,08,20,13,54,24.40
2009,08,20,13,55,24.40
2009,08,20,13,56,24.40
2009,08,20,13,57,24.40
2009,08,20,13,58,24.30
2009,08,20,13,59,24.20
2009,08,20,14,00,24.20
2009,08,20,14,01,24.20
2009,08,20,14,02,24.10
2009,08,20,14,03,24.10
2009,08,20,14,04,24.00
2009,08,20,14,05,23.90
2009,08,20,14,06,23.80
2009,08,20,14,07,23.90
2009,08,20,14,08,23.90
2009,08,20,14,09,23.80
2009,08,20,14,10,23.90
2009,08,20,14,11,23.90
2009,08,20,14,12,23.80
2009,08,20,14,13,23.90
2009,08,20,14,14,23.80
2009,08,20,14,15,23.80
2009,08,20,14,16,23.80
2009,08,20,14,17,23.70
2009,08,20,14,18,23.80
2009,08,20,14,19,23.90
2009,08,20,14,20,24.00
2009,08,20,14,21,24.10
2009,08,20,14,22,24.10
2009,08,20,14,23,24.10
2009,08,20,14,24,24.00
2009,08,20,14,25,23.90
2009,08,20,14,26,23.90
2009,08,20,14,27,23.90
2009,08,20,14,28,23.90
2009,08,20,14,29,23.90
2009,08,20,14,30,23.90
2009,08,20,14,31,23.90
2009,08,20,14,32,23.90
2009,08,20,14,33,23.90
2009,08,20,14,34,23.90
2009,08,20,14,35,23.90
2009,08,20,14,36,23.80
2009,08,20,14,37,23.80
2009,08,20,14,38,23.80
2009,08,20,14,39,23.90
2009,08,20,14,40,24.10
2009,08,20,14,41,24.10
2009,08,20,14,42,24.20
2009,08,20,14,43,24.10
2009,08,20,14,44,24.10
2009,08,20,14,45,24.00
2009,08,20,14,46,23.90
2009,08,20,14,47,23.90
2009,08,20,14,48,23.90
2009,08,20,14,49,23.90
2009,08,20,14,50,24.00
2009,08,20,14,51,24.10
2009,08,20,14,52,24.10
2009,08,20,14,53,24.10
2009,08,20,14,54,24.10
2009,08,20,14,55,24.20
2009,08,20,14,56,24.10
2009,08,20,14,57,24.10
2009,08,20,14,58,24.10
2009,08,20,14,59,24.20
2009,08,20,15,00,24.10
2009,08,20,15,01,24.10
2009,08,20,15,02,24.10
2009,08,20,15,03,24.10
2009,08,20,15,04,24.10
2009,08,20,15,05,24.20
2009,08,20,15,06,24.30
2009,08,20,15,07,24.30
2009,08,20,15,08,24.30
2009,08,20,15,09,24.20
2009,08,20,15,10,24.10
2009,08,20,15,11,24.10
2009,08,20,15,12,24.10
2009,08,20,15,13,24.10
2009,08,20,15,14,24.10
2009,08,20,15,15,24.10
2009,08,20,15,16,23.90
2009,08,20,15,17,23.70
2009,08,20,15,18,23.60
2009,08,20,15,19,23.50
2009,08,20,15,20,23.40
2009,08,20,15,21,23.50
2009,08,20,15,22,23.60
2009,08,20,15,23,23.60
2009,08,20,15,24,23.60
2009,08,20,15,25,23.50
2009,08,20,15,26,23.50
2009,08,20,15,27,23.60
2009,08,20,15,28,23.60
2009,08,20,15,29,23.60
2009,08,20,15,30,23.50
2009,08,20,15,31,23.40
2009,08,20,15,32,23.40
2009,08,20,15,33,23.40
2009,08,20,15,34,23.40
2009,08,20,15,35,23.50
2009,08,20,15,36,23.70
2009,08,20,15,37,23.70
2009,08,20,15,38,23.70
2009,08,20,15,39,23.70
2009,08,20,15,40,23.70
2009,08,20,15,41,23.70
2009,08,20,15,42,23.70
2009,08,20,15,43,23.70
2009,08,20,15,44,23.70
2009,08,20,15,45,23.70
2009,08,20,15,46,23.70
2009,08,20,15,47,23.70
2009,08,20,15,48,23.70
2009,08,20,15,49,23.90
2009,08,20,15,50,23.90
2009,08,20,15,51,23.80
2009,08,20,15,52,23.80
2009,08,20,15,53,23.70
2009,08,20,15,54,23.70
2009,08,20,15,55,23.70
2009,08,20,15,56,23.70
2009,08,20,15,57,23.70
2009,08,20,15,58,23.70
2009,08,20,15,59,23.70
2009,08,20,16,00,23.70
2009,08,20,16,01,23.70
2009,08,20,16,02,23.60
2009,08,20,16,03,23.60
2009,08,20,16,04,23.70
2009,08,20,16,05,23.60
2009,08,20,16,06,23.50
2009,08,20,16,07,23.50
2009,08,20,16,08,23.60
2009,08,20,16,09,23.60
2009,08,20,16,10,23.60
2009,08,20,16,11,23.50
2009,08,20,16,12,23.40
2009,08,20,16,13,23.50
2009,08,20,16,14,23.60
2009,08,20,16,15,23.50
2009,08,20,16,16,23.40
2009,08,20,16,17,23.50
2009,08,20,16,18,23.60
2009,08,20,16,19,23.70
2009,08,20,16,20,23.70
2009,08,20,16,21,23.70
2009,08,20,16,22,23.60
2009,08,20,16,23,23.60
2009,08,20,16,24,23.60
2009,08,20,16,25,23.40
2009,08,20,16,26,23.40
2009,08,20,16,27,23.40
2009,08,20,16,28,23.30
2009,08,20,16,29,23.20
2009,08,20,16,30,23.20
2009,08,20,16,31,23.20
2009,08,20,16,32,23.20
2009,08,20,16,33,23.20
2009,08,20,16,34,23.10
2009,08,20,16,35,23.20
2009,08,20,16,36,23.20
2009,08,20,16,37,23.30
2009,08,20,16,38,23.30
2009,08,20,16,39,23.30
2009,08,20,16,40,23.20
2009,08,20,16,41,23.20
2009,08,20,16,42,23.20
2009,08,20,16,43,23.10
2009,08,20,16,44,23.10
2009,08,20,16,45,23.20
2009,08,20,16,46,23.20
2009,08,20,16,47,23.20
2009,08,20,16,48,23.20
2009,08,20,16,49,23.20
2009,08,20,16,50,23.10
2009,08,20,16,51,22.90
2009,08,20,16,52,22.90
2009,08,20,16,53,22.90
2009,08,20,16,54,22.80
2009,08,20,16,55,22.70
2009,08,20,16,56,22.70
2009,08,20,16,57,22.70
2009,08,20,16,58,22.70
2009,08,20,16,59,22.60
2009,08,20,17,00,22.60
2009,08,20,17,01,22.60
2009,08,20,17,02,22.50
2009,08,20,17,03,22.40
2009,08,20,17,04,22.40
2009,08,20,17,05,22.40
2009,08,20,17,06,22.40
2009,08,20,17,07,22.40
2009,08,20,17,08,22.30
2009,08,20,17,09,22.30
2009,08,20,17,10,22.30
2009,08,20,17,11,22.20
2009,08,20,17,12,22.20
2009,08,20,17,13,22.20
2009,08,20,17,14,22.20
2009,08,20,17,15,22.20
2009,08,20,17,16,22.20
2009,08,20,17,17,22.20
2009,08,20,17,18,22.20
2009,08,20,17,19,22.20